Radiosonde details



Informationen :

Serial : S4250776
Type : Vaisala RS41-SG
Date of production : 16.10.2020
Frequency : 401.000MHz
Launchsite : Kaunas
Nearest town : Camocim, BR (363.8km)

Altitude (Max) : 17687m at 2026-09-01 12:30:00
Speed (Max) : 67km/h at altitude 4552m

Average speed : 19km/h
Average ascent rate : 5m/s
Average descent rate : 0m/s
Ascent rate (Max) : 8.4m/s
Descent rate (Max): 0m/s

First frame :
LY3OO-11 at 2026-09-01 11:32:51 at altitude 734m (OG: 692m)
Last frame :
LY3OO-11 at 2026-09-01 13:20:00 at altitude 1m (OG: -41m)

Flighttime : 1h47m9s
Ascent time : 57m9s
Descent time : 50m0s
Uptime : -
Killtimer : -

Distance (Straight line distance): 8391km

Distance (Route):


Frames : 242


Measurement :

Temperature : -19.3°C
Humidity : 43.0%
Pressure : 0hPa


Vertical profile (SkewT) :


Elevation profile :



Receiving stations :


Receiver Frames First received Last received
LY3OO-11 242 2026-09-01 11:32:51 2026-09-01 13:20:00

Share per receiver :



All frames :


Receiver Date Latitude Longitude Direction Speed Altitude Climb Temperature Humidity Pressure Voltage Killtimer Uptime BKT XDATA
LY3OO-112026-09-01 13:20:000.36977-40.854330km/h1m0.0m/s-19.3°C43.0%0hPa0V00:00:0000:00:0000:00:00
LY3OO-112026-09-01 13:19:390.36977-40.854330km/h1m0.0m/s-22.3°C51.0%0hPa0V00:00:0000:00:0000:00:00
LY3OO-112026-09-01 13:18:550.36977-40.854330km/h1m0.0m/s-28.6°C23.9%0hPa0V00:00:0000:00:0000:00:00
LY3OO-112026-09-01 13:18:330.36977-40.854330km/h1m0.0m/s-31.6°C59.1%0hPa0V00:00:0000:00:0000:00:00
LY3OO-112026-09-01 13:18:100.36977-40.854330km/h1m0.0m/s-34.6°C57.0%0hPa0V00:00:0000:00:0000:00:00
LY3OO-112026-09-01 13:17:490.36977-40.854330km/h1m0.0m/s-37.8°C55.3%0hPa0V00:00:0000:00:0000:00:00
LY3OO-112026-09-01 13:17:230.36977-40.854330km/h1m0.0m/s-42.4°C53.8%0hPa0V00:00:0000:00:0000:00:00
LY3OO-112026-09-01 13:16:400.36977-40.854330km/h1m0.0m/s-49.6°C52.5%0hPa0V00:00:0000:00:0000:00:00
LY3OO-112026-09-01 13:16:170.36977-40.854330km/h1m0.0m/s-48.4°C10.2%0hPa0V00:00:0000:00:0000:00:00
LY3OO-112026-09-01 13:15:560.36977-40.854330km/h1m0.0m/s-46.5°C4.9%0hPa0V00:00:0000:00:0000:00:00
LY3OO-112026-09-01 13:15:350.36977-40.854330km/h1m0.0m/s-48.4°C5.4%0hPa0V00:00:0000:00:0000:00:00
LY3OO-112026-09-01 13:15:140.36977-40.854330km/h1m0.0m/s-47.7°C3.6%0hPa0V00:00:0000:00:0000:00:00
LY3OO-112026-09-01 13:14:320.36977-40.854330km/h1m0.0m/s-47.6°C3.2%0hPa0V00:00:0000:00:0000:00:00
LY3OO-112026-09-01 13:14:080.36977-40.854330km/h1m0.0m/s-46.7°C2.9%0hPa0V00:00:0000:00:0000:00:00
LY3OO-112026-09-01 13:13:480.36977-40.854330km/h1m0.0m/s-47.6°C3.1%0hPa0V00:00:0000:00:0000:00:00
LY3OO-112026-09-01 13:13:280.36977-40.854330km/h1m0.0m/s-49.3°C3.4%0hPa0V00:00:0000:00:0000:00:00
LY3OO-112026-09-01 13:13:070.36977-40.854330km/h1m0.0m/s-49.3°C3.5%0hPa0V00:00:0000:00:0000:00:00
LY3OO-112026-09-01 13:12:460.36977-40.854330km/h1m0.0m/s-49.4°C3.4%0hPa0V00:00:0000:00:0000:00:00
LY3OO-112026-09-01 13:12:260.36977-40.854330km/h1m0.0m/s-48.2°C3.0%0hPa0V00:00:0000:00:0000:00:00
LY3OO-112026-09-01 13:12:060.36977-40.854330km/h1m0.0m/s-49.4°C3.1%0hPa0V00:00:0000:00:0000:00:00
LY3OO-112026-09-01 13:11:180.36977-40.854330km/h1m0.0m/s-50.8°C3.7%0hPa0V00:00:0000:00:0000:00:00
LY3OO-112026-09-01 13:09:400.36977-40.854330km/h1m0.0m/s-49.7°C3.6%0hPa0V00:00:0000:00:0000:00:00
LY3OO-112026-09-01 13:09:200.36977-40.854330km/h1m0.0m/s-49.1°C3.8%0hPa0V00:00:0000:00:0000:00:00
LY3OO-112026-09-01 13:08:410.36977-40.854330km/h1m0.0m/s-42.8°C2.6%0hPa0V00:00:0000:00:0000:00:00
LY3OO-112026-09-01 13:08:180.36977-40.854330km/h1m0.0m/s-43.3°C2.7%0hPa0V00:00:0000:00:0000:00:00
LY3OO-112026-09-01 13:07:570.36977-40.854330km/h1m0.0m/s-43.6°C2.7%0hPa0V00:00:0000:00:0000:00:00
LY3OO-112026-09-01 13:07:360.36977-40.854330km/h1m0.0m/s-44.1°C3.0%0hPa0V00:00:0000:00:0000:00:00
LY3OO-112026-09-01 13:07:160.36977-40.854330km/h1m0.0m/s-43.8°C2.7%0hPa0V00:00:0000:00:0000:00:00
LY3OO-112026-09-01 13:06:560.36977-40.854330km/h1m0.0m/s-43.8°C3.0%0hPa0V00:00:0000:00:0000:00:00
LY3OO-112026-09-01 13:06:350.36977-40.854330km/h1m0.0m/s-44.4°C2.8%0hPa0V00:00:0000:00:0000:00:00
LY3OO-112026-09-01 13:06:150.36977-40.854330km/h1m0.0m/s-44.5°C2.8%0hPa0V00:00:0000:00:0000:00:00
LY3OO-112026-09-01 13:05:540.36977-40.854330km/h1m0.0m/s-44.7°C2.9%0hPa0V00:00:0000:00:0000:00:00
LY3OO-112026-09-01 13:05:330.36977-40.854330km/h1m0.0m/s-44.9°C2.8%0hPa0V00:00:0000:00:0000:00:00
LY3OO-112026-09-01 13:05:130.36977-40.854330km/h1m0.0m/s-45.5°C2.8%0hPa0V00:00:0000:00:0000:00:00
LY3OO-112026-09-01 13:04:520.36977-40.854330km/h1m0.0m/s-45.7°C2.9%0hPa0V00:00:0000:00:0000:00:00
LY3OO-112026-09-01 13:04:310.36977-40.854330km/h1m0.0m/s-45.9°C3.0%0hPa0V00:00:0000:00:0000:00:00
LY3OO-112026-09-01 13:04:100.36977-40.854330km/h1m0.0m/s-46.4°C3.1%0hPa0V00:00:0000:00:0000:00:00
LY3OO-112026-09-01 13:03:500.36977-40.854330km/h1m0.0m/s-46.5°C3.1%0hPa0V00:00:0000:00:0000:00:00
LY3OO-112026-09-01 13:03:300.36977-40.854330km/h1m0.0m/s-46.5°C3.1%0hPa0V00:00:0000:00:0000:00:00
LY3OO-112026-09-01 13:03:090.36977-40.854330km/h1m0.0m/s-46.9°C3.2%0hPa0V00:00:0000:00:0000:00:00
LY3OO-112026-09-01 13:02:480.36977-40.854330km/h1m0.0m/s-46.8°C3.1%0hPa0V00:00:0000:00:0000:00:00
LY3OO-112026-09-01 13:02:280.36977-40.854330km/h1m0.0m/s-47.0°C3.2%0hPa0V00:00:0000:00:0000:00:00
LY3OO-112026-09-01 13:02:060.36977-40.854330km/h1m0.0m/s-47.2°C3.3%0hPa0V00:00:0000:00:0000:00:00
LY3OO-112026-09-01 13:01:470.36977-40.854330km/h1m0.0m/s-46.9°C3.2%0hPa0V00:00:0000:00:0000:00:00
LY3OO-112026-09-01 13:01:200.36977-40.854330km/h1m0.0m/s-47.7°C3.2%0hPa0V00:00:0000:00:0000:00:00
LY3OO-112026-09-01 13:01:000.36977-40.854330km/h1m0.0m/s-47.9°C3.2%0hPa0V00:00:0000:00:0000:00:00
LY3OO-112026-09-01 13:00:310.36977-40.854330km/h1m0.0m/s-48.8°C3.4%0hPa0V00:00:0000:00:0000:00:00
LY3OO-112026-09-01 13:00:010.36977-40.854330km/h1m0.0m/s-49.1°C3.3%0hPa0V00:00:0000:00:0000:00:00
LY3OO-112026-09-01 12:59:380.36977-40.854330km/h1m0.0m/s-49.2°C3.4%0hPa0V00:00:0000:00:0000:00:00
LY3OO-112026-09-01 12:59:170.36977-40.854330km/h1m0.0m/s-49.7°C3.5%0hPa0V00:00:0000:00:0000:00:00
LY3OO-112026-09-01 12:58:570.36977-40.854330km/h1m0.0m/s-49.9°C3.5%0hPa0V00:00:0000:00:0000:00:00
LY3OO-112026-09-01 12:58:360.36977-40.854330km/h1m0.0m/s-50.5°C3.6%0hPa0V00:00:0000:00:0000:00:00
LY3OO-112026-09-01 12:58:150.36977-40.854330km/h1m0.0m/s-50.4°C3.7%0hPa0V00:00:0000:00:0000:00:00
LY3OO-112026-09-01 12:57:550.36977-40.854330km/h1m0.0m/s-50.1°C3.6%0hPa0V00:00:0000:00:0000:00:00
LY3OO-112026-09-01 12:57:340.36977-40.854330km/h1m0.0m/s-50.1°C3.6%0hPa0V00:00:0000:00:0000:00:00
LY3OO-112026-09-01 12:57:150.36977-40.854330km/h1m0.0m/s-50.7°C3.7%0hPa0V00:00:0000:00:0000:00:00
LY3OO-112026-09-01 12:56:540.36977-40.854330km/h1m0.0m/s-50.6°C3.7%0hPa0V00:00:0000:00:0000:00:00
LY3OO-112026-09-01 12:56:330.36977-40.854330km/h1m0.0m/s-50.5°C3.6%0hPa0V00:00:0000:00:0000:00:00
LY3OO-112026-09-01 12:56:130.36977-40.854330km/h1m0.0m/s-50.5°C3.5%0hPa0V00:00:0000:00:0000:00:00
LY3OO-112026-09-01 12:55:510.36977-40.854330km/h1m0.0m/s-51.6°C3.8%0hPa0V00:00:0000:00:0000:00:00
LY3OO-112026-09-01 12:55:310.36977-40.854330km/h1m0.0m/s-52.0°C3.9%0hPa0V00:00:0000:00:0000:00:00
LY3OO-112026-09-01 12:55:120.36977-40.854330km/h1m0.0m/s-51.6°C3.8%0hPa0V00:00:0000:00:0000:00:00
LY3OO-112026-09-01 12:54:500.36977-40.854330km/h1m0.0m/s-51.4°C3.9%0hPa0V00:00:0000:00:0000:00:00
LY3OO-112026-09-01 12:54:290.36977-40.854330km/h1m0.0m/s-51.3°C3.8%0hPa0V00:00:0000:00:0000:00:00
LY3OO-112026-09-01 12:54:090.36977-40.854330km/h1m0.0m/s-50.9°C3.7%0hPa0V00:00:0000:00:0000:00:00
LY3OO-112026-09-01 12:53:470.36977-40.854330km/h1m0.0m/s-50.4°C3.7%0hPa0V00:00:0000:00:0000:00:00
LY3OO-112026-09-01 12:53:270.36977-40.854330km/h1m0.0m/s-50.5°C3.6%0hPa0V00:00:0000:00:0000:00:00
LY3OO-112026-09-01 12:53:060.36977-40.854330km/h1m0.0m/s-50.8°C3.6%0hPa0V00:00:0000:00:0000:00:00
LY3OO-112026-09-01 12:52:460.36977-40.854330km/h1m0.0m/s-51.4°C3.8%0hPa0V00:00:0000:00:0000:00:00
LY3OO-112026-09-01 12:52:270.36977-40.854330km/h1m0.0m/s-51.9°C3.8%0hPa0V00:00:0000:00:0000:00:00
LY3OO-112026-09-01 12:52:060.36977-40.854330km/h1m0.0m/s-52.0°C3.9%0hPa0V00:00:0000:00:0000:00:00
LY3OO-112026-09-01 12:51:450.36977-40.854330km/h1m0.0m/s-52.0°C4.0%0hPa0V00:00:0000:00:0000:00:00
LY3OO-112026-09-01 12:51:240.36977-40.854330km/h1m0.0m/s-51.7°C4.1%0hPa0V00:00:0000:00:0000:00:00
LY3OO-112026-09-01 12:51:040.36977-40.854330km/h1m0.0m/s-51.0°C3.9%0hPa0V00:00:0000:00:0000:00:00
LY3OO-112026-09-01 12:50:430.36977-40.854330km/h1m0.0m/s-50.4°C3.6%0hPa0V00:00:0000:00:0000:00:00
LY3OO-112026-09-01 12:50:220.36977-40.854330km/h1m0.0m/s-50.3°C3.6%0hPa0V00:00:0000:00:0000:00:00
LY3OO-112026-09-01 12:50:020.36977-40.854330km/h1m0.0m/s-50.2°C3.6%0hPa0V00:00:0000:00:0000:00:00
LY3OO-112026-09-01 12:49:400.36977-40.854330km/h1m0.0m/s-50.7°C3.6%0hPa0V00:00:0000:00:0000:00:00
LY3OO-112026-09-01 12:49:190.36977-40.854330km/h1m0.0m/s-51.3°C3.7%0hPa0V00:00:0000:00:0000:00:00
LY3OO-112026-09-01 12:48:580.36977-40.854330km/h1m0.0m/s-51.9°C3.8%0hPa0V00:00:0000:00:0000:00:00
LY3OO-112026-09-01 12:48:370.36977-40.854330km/h1m0.0m/s-51.8°C3.6%0hPa0V00:00:0000:00:0000:00:00
LY3OO-112026-09-01 12:48:160.36977-40.854330km/h1m0.0m/s-52.8°C4.0%0hPa0V00:00:0000:00:0000:00:00
LY3OO-112026-09-01 12:46:390.36977-40.854330km/h1m0.0m/s-52.4°C4.0%0hPa0V00:00:0000:00:0000:00:00
LY3OO-112026-09-01 12:46:190.36977-40.854330km/h1m0.0m/s-51.6°C3.9%0hPa0V00:00:0000:00:0000:00:00
LY3OO-112026-09-01 12:45:580.36977-40.854330km/h1m0.0m/s-50.6°C3.6%0hPa0V00:00:0000:00:0000:00:00
LY3OO-112026-09-01 12:45:370.36977-40.854330km/h1m0.0m/s-50.6°C3.7%0hPa0V00:00:0000:00:0000:00:00
LY3OO-112026-09-01 12:43:570.36977-40.854330km/h1m0.0m/s-51.3°C3.6%0hPa0V00:00:0000:00:0000:00:00
LY3OO-112026-09-01 12:43:340.36977-40.854330km/h1m0.0m/s-52.0°C3.9%0hPa0V00:00:0000:00:0000:00:00
LY3OO-112026-09-01 12:43:130.36977-40.854330km/h1m0.0m/s-51.7°C3.9%0hPa0V00:00:0000:00:0000:00:00
LY3OO-112026-09-01 12:42:480.36977-40.854330km/h1m0.0m/s-51.6°C3.8%0hPa0V00:00:0000:00:0000:00:00
LY3OO-112026-09-01 12:42:270.36977-40.854330km/h1m0.0m/s-51.5°C3.7%0hPa0V00:00:0000:00:0000:00:00
LY3OO-112026-09-01 12:42:050.36977-40.854330km/h1m0.0m/s-52.2°C4.0%0hPa0V00:00:0000:00:0000:00:00
LY3OO-112026-09-01 12:41:440.36977-40.854330km/h1m0.0m/s-52.5°C4.0%0hPa0V00:00:0000:00:0000:00:00
LY3OO-112026-09-01 12:41:210.36977-40.854330km/h1m0.0m/s-52.5°C4.0%0hPa0V00:00:0000:00:0000:00:00
LY3OO-112026-09-01 12:41:010.36977-40.854330km/h1m0.0m/s-52.5°C4.0%0hPa0V00:00:0000:00:0000:00:00
LY3OO-112026-09-01 12:40:400.36977-40.854330km/h1m0.0m/s-52.3°C3.9%0hPa0V00:00:0000:00:0000:00:00
LY3OO-112026-09-01 12:40:200.36977-40.854330km/h1m0.0m/s-52.6°C4.0%0hPa0V00:00:0000:00:0000:00:00
LY3OO-112026-09-01 12:40:000.36977-40.854330km/h1m0.0m/s-52.4°C4.0%0hPa0V00:00:0000:00:0000:00:00
LY3OO-112026-09-01 12:39:390.36977-40.854330km/h1m0.0m/s-52.2°C4.0%0hPa0V00:00:0000:00:0000:00:00
LY3OO-112026-09-01 12:39:190.36977-40.854330km/h1m0.0m/s-51.7°C3.9%0hPa0V00:00:0000:00:0000:00:00
LY3OO-112026-09-01 12:38:570.36977-40.854330km/h1m0.0m/s-51.4°C3.6%0hPa0V00:00:0000:00:0000:00:00
LY3OO-112026-09-01 12:38:360.36977-40.854330km/h1m0.0m/s-52.0°C3.9%0hPa0V00:00:0000:00:0000:00:00
LY3OO-112026-09-01 12:38:160.36977-40.854330km/h1m0.0m/s-51.5°C3.8%0hPa0V00:00:0000:00:0000:00:00
LY3OO-112026-09-01 12:37:550.36977-40.854330km/h1m0.0m/s-51.0°C3.7%0hPa0V00:00:0000:00:0000:00:00
LY3OO-112026-09-01 12:37:340.36977-40.854330km/h1m0.0m/s-51.1°C3.8%0hPa0V00:00:0000:00:0000:00:00
LY3OO-112026-09-01 12:37:130.36977-40.854330km/h1m0.0m/s-50.6°C3.8%0hPa0V00:00:0000:00:0000:00:00
LY3OO-112026-09-01 12:36:530.36977-40.854330km/h1m0.0m/s-50.9°C3.7%0hPa0V00:00:0000:00:0000:00:00
LY3OO-112026-09-01 12:36:320.36977-40.854330km/h1m0.0m/s-50.5°C3.6%0hPa0V00:00:0000:00:0000:00:00
LY3OO-112026-09-01 12:36:100.36977-40.854330km/h1m0.0m/s-49.9°C3.5%0hPa0V00:00:0000:00:0000:00:00
LY3OO-112026-09-01 12:35:450.36977-40.854330km/h1m0.0m/s-49.8°C3.5%0hPa0V00:00:0000:00:0000:00:00
LY3OO-112026-09-01 12:35:230.36977-40.854330km/h1m0.0m/s-50.9°C3.6%0hPa0V00:00:0000:00:0000:00:00
LY3OO-112026-09-01 12:35:030.36977-40.854330km/h1m0.0m/s-51.4°C3.8%0hPa0V00:00:0000:00:0000:00:00
LY3OO-112026-09-01 12:34:420.36977-40.854330km/h1m0.0m/s-50.9°C3.7%0hPa0V00:00:0000:00:0000:00:00
LY3OO-112026-09-01 12:34:210.36977-40.854330km/h1m0.0m/s-51.1°C3.8%0hPa0V00:00:0000:00:0000:00:00
LY3OO-112026-09-01 12:34:000.36977-40.854330km/h1m0.0m/s-50.6°C3.6%0hPa0V00:00:0000:00:0000:00:00
LY3OO-112026-09-01 12:33:370.36977-40.854330km/h1m0.0m/s-50.7°C3.7%0hPa0V00:00:0000:00:0000:00:00
LY3OO-112026-09-01 12:33:160.36977-40.854330km/h1m0.0m/s-50.6°C3.7%0hPa0V00:00:0000:00:0000:00:00
LY3OO-112026-09-01 12:32:510.36977-40.854330km/h1m0.0m/s-50.1°C3.6%0hPa0V00:00:0000:00:0000:00:00
LY3OO-112026-09-01 12:32:300.36977-40.854330km/h1m0.0m/s-50.7°C1.1%0hPa0V00:00:0000:00:0000:00:00
LY3OO-112026-09-01 12:32:0555.0685724.215030km/h17687m0.0m/s-50.9°C1.1%0hPa0V00:00:0000:00:0000:00:00
LY3OO-112026-09-01 12:30:0055.0685724.215030km/h17687m0.0m/s-49.8°C1.2%0hPa0V00:00:0000:00:0000:00:00
LY3OO-112026-09-01 12:19:1555.0415324.1189242°51km/h14126m2.6m/s-47.8°C1.2%0hPa0V00:00:0000:00:0000:00:00
LY3OO-112026-09-01 12:18:3455.0377924.1130659°58km/h13911m4.2m/s-48.0°C1.3%0hPa0V00:00:0000:00:0000:00:00
LY3OO-112026-09-01 12:18:1255.0362524.1082054°62km/h13805m5.2m/s-48.9°C1.4%0hPa0V00:00:0000:00:0000:00:00
LY3OO-112026-09-01 12:17:5255.0342324.1039046°64km/h13694m7.8m/s-48.9°C1.4%0hPa0V00:00:0000:00:0000:00:00
LY3OO-112026-09-01 12:16:4255.0293624.0912850°42km/h13354m4.1m/s-47.9°C1.3%0hPa0V00:00:0000:00:0000:00:00
LY3OO-112026-09-01 12:16:2255.0278524.0885446°40km/h13271m3.9m/s-48.4°C1.5%0hPa0V00:00:0000:00:0000:00:00
LY3OO-112026-09-01 12:13:3455.0183824.0633763°40km/h12654m4.5m/s-47.4°C1.4%0hPa0V00:00:0000:00:0000:00:00
LY3OO-112026-09-01 12:13:1255.0175424.0599970°38km/h12572m3.5m/s-47.0°C1.4%0hPa0V00:00:0000:00:0000:00:00
LY3OO-112026-09-01 12:12:5155.0166424.0569749°35km/h12493m5.9m/s-47.3°C1.4%0hPa0V00:00:0000:00:0000:00:00
LY3OO-112026-09-01 12:12:3155.0156624.0542764°42km/h12395m6.3m/s-46.7°C1.4%0hPa0V00:00:0000:00:0000:00:00
LY3OO-112026-09-01 12:12:1155.0149724.0510588°35km/h12262m5.0m/s-45.8°C1.3%0hPa0V00:00:0000:00:0000:00:00
LY3OO-112026-09-01 12:11:4955.0145724.0475762°38km/h12125m6.7m/s-45.9°C1.4%0hPa0V00:00:0000:00:0000:00:00
LY3OO-112026-09-01 12:11:2955.0137324.0446562°35km/h12010m6.7m/s-45.2°C1.3%0hPa0V00:00:0000:00:0000:00:00
LY3OO-112026-09-01 12:11:0955.0130424.0422484°33km/h11911m5.4m/s-45.5°C1.5%0hPa0V00:00:0000:00:0000:00:00
LY3OO-112026-09-01 12:10:4855.0117324.0387164°53km/h11781m5.1m/s-45.7°C1.7%0hPa0V00:00:0000:00:0000:00:00
LY3OO-112026-09-01 12:10:2755.0102624.0346051°60km/h11665m8.2m/s-46.8°C2.2%0hPa0V00:00:0000:00:0000:00:00
LY3OO-112026-09-01 12:10:0555.0082824.0308249°55km/h11521m4.5m/s-46.8°C2.3%0hPa0V00:00:0000:00:0000:00:00
LY3OO-112026-09-01 12:09:3955.0056324.0268740°60km/h11371m7.2m/s-47.1°C2.7%0hPa0V00:00:0000:00:0000:00:00
LY3OO-112026-09-01 12:09:1955.0033524.0240933°51km/h11274m2.9m/s-47.1°C3.1%0hPa0V00:00:0000:00:0000:00:00
LY3OO-112026-09-01 12:08:5455.0002424.0209247°49km/h11149m3.9m/s-47.4°C3.8%0hPa0V00:00:0000:00:0000:00:00
LY3OO-112026-09-01 12:08:3354.9983624.0171657°55km/h11050m3.5m/s-47.0°C4.1%0hPa0V00:00:0000:00:0000:00:00
LY3OO-112026-09-01 12:08:1254.9966724.0134737°55km/h10948m4.1m/s-47.1°C4.5%0hPa0V00:00:0000:00:0000:00:00
LY3OO-112026-09-01 12:07:5254.9943924.0107124°58km/h10841m3.9m/s-46.7°C4.9%0hPa0V00:00:0000:00:0000:00:00
LY3OO-112026-09-01 12:07:2954.9915624.0085620°53km/h10741m4.1m/s-46.9°C5.3%0hPa0V00:00:0000:00:0000:00:00
LY3OO-112026-09-01 12:07:0854.9892124.0070127°53km/h10635m3.0m/s-47.3°C5.8%0hPa0V00:00:0000:00:0000:00:00
LY3OO-112026-09-01 12:06:4954.9867124.00610360°55km/h10534m4.9m/s-46.9°C5.8%0hPa0V00:00:0000:00:0000:00:00
LY3OO-112026-09-01 12:06:2754.9843224.0052915°51km/h10414m2.4m/s-48.2°C7.0%0hPa0V00:00:0000:00:0000:00:00
LY3OO-112026-09-01 12:06:0754.9817124.0041914°53km/h10324m4.8m/s-48.6°C9.3%0hPa0V00:00:0000:00:0000:00:00
LY3OO-112026-09-01 12:05:4654.9795324.0022915°44km/h10205m8.3m/s-48.8°C13.7%0hPa0V00:00:0000:00:0000:00:00
LY3OO-112026-09-01 12:05:2554.9770524.0005323°58km/h10072m5.5m/s-49.8°C34.2%0hPa0V00:00:0000:00:0000:00:00
LY3OO-112026-09-01 12:05:0454.9743323.9987641°26km/h9967m6.3m/s-50.1°C33.9%0hPa0V00:00:0000:00:0000:00:00
LY3OO-112026-09-01 12:04:4454.9728023.99804357°35km/h9855m6.6m/s-49.2°C41.1%0hPa0V00:00:0000:00:0000:00:00
LY3OO-112026-09-01 12:04:2454.9711823.99818348°33km/h9750m6.1m/s-49.9°C59.1%0hPa0V00:00:0000:00:0000:00:00
LY3OO-112026-09-01 12:04:0454.9704324.00004291°42km/h9641m5.3m/s-49.3°C65.1%0hPa0V00:00:0000:00:0000:00:00
LY3OO-112026-09-01 12:03:4354.9700124.00218251°22km/h9509m6.1m/s-48.1°C59.4%0hPa0V00:00:0000:00:0000:00:00
LY3OO-112026-09-01 12:03:2154.9695524.00363309°11km/h9395m6.8m/s-47.2°C63.2%0hPa0V00:00:0000:00:0000:00:00
LY3OO-112026-09-01 12:03:0154.9692424.00492324°18km/h9292m4.4m/s-46.4°C64.7%0hPa0V00:00:0000:00:0000:00:00
LY3OO-112026-09-01 12:02:4054.9690624.00553287°16km/h9188m6.7m/s-45.5°C64.8%0hPa0V00:00:0000:00:0000:00:00
LY3OO-112026-09-01 12:02:2154.9690324.00674256°20km/h9090m4.0m/s-44.7°C66.5%0hPa0V00:00:0000:00:0000:00:00
LY3OO-112026-09-01 12:02:0054.9689524.00736266°15km/h8978m5.0m/s-43.8°C67.3%0hPa0V00:00:0000:00:0000:00:00
LY3OO-112026-09-01 12:01:3954.9688324.00727316°9km/h8872m4.8m/s-42.8°C67.4%0hPa0V00:00:0000:00:0000:00:00
LY3OO-112026-09-01 12:01:1954.9687024.0076121°11km/h8765m3.2m/s-42.0°C70.0%0hPa0V00:00:0000:00:0000:00:00
LY3OO-112026-09-01 12:00:5854.9686224.00758279°4km/h8658m5.2m/s-41.1°C69.9%0hPa0V00:00:0000:00:0000:00:00
LY3OO-112026-09-01 12:00:3854.9683024.0080569°7km/h8539m4.1m/s-40.0°C69.6%0hPa0V00:00:0000:00:0000:00:00
LY3OO-112026-09-01 12:00:1854.9682324.00818214°9km/h8420m7.7m/s-39.0°C70.3%0hPa0V00:00:0000:00:0000:00:00
LY3OO-112026-09-01 11:59:5654.9680124.00829355°2km/h8309m6.0m/s-38.1°C69.7%0hPa0V00:00:0000:00:0000:00:00
LY3OO-112026-09-01 11:59:1654.9677624.00765125°7km/h8093m4.5m/s-36.2°C70.7%0hPa0V00:00:0000:00:0000:00:00
LY3OO-112026-09-01 11:58:5454.9675724.0079967°7km/h7986m6.6m/s-35.2°C71.3%0hPa0V00:00:0000:00:0000:00:00
LY3OO-112026-09-01 11:58:3554.9674324.0082543°13km/h7881m6.0m/s-34.5°C72.0%0hPa0V00:00:0000:00:0000:00:00
LY3OO-112026-09-01 11:58:1454.9669224.00818264°4km/h7774m5.2m/s-33.6°C70.8%0hPa0V00:00:0000:00:0000:00:00
LY3OO-112026-09-01 11:57:5354.9663324.00828307°24km/h7666m5.3m/s-32.8°C70.1%0hPa0V00:00:0000:00:0000:00:00
LY3OO-112026-09-01 11:57:3254.9654924.00833327°18km/h7575m5.7m/s-32.2°C72.8%0hPa0V00:00:0000:00:0000:00:00
LY3OO-112026-09-01 11:57:1254.9646024.00881286°5km/h7471m4.9m/s-31.4°C72.9%0hPa0V00:00:0000:00:0000:00:00
LY3OO-112026-09-01 11:56:5154.9636624.00945354°24km/h7381m4.4m/s-30.6°C74.3%0hPa0V00:00:0000:00:0000:00:00
LY3OO-112026-09-01 11:56:3154.9624224.0098931km/h7282m5.6m/s-30.0°C76.1%0hPa0V00:00:0000:00:0000:00:00
LY3OO-112026-09-01 11:56:1154.9605424.00972356°38km/h7181m5.6m/s-29.2°C75.5%0hPa0V00:00:0000:00:0000:00:00
LY3OO-112026-09-01 11:55:5054.9585524.0099449km/h7085m4.1m/s-28.5°C74.0%0hPa0V00:00:0000:00:0000:00:00
LY3OO-112026-09-01 11:55:2954.9564624.0102717°29km/h6984m3.5m/s-27.7°C78.8%0hPa0V00:00:0000:00:0000:00:00
LY3OO-112026-09-01 11:55:0954.9546724.01040344°33km/h6882m3.0m/s-27.4°C82.8%0hPa0V00:00:0000:00:0000:00:00
LY3OO-112026-09-01 11:54:4954.9526324.01013356°49km/h6777m5.6m/s-26.5°C81.9%0hPa0V00:00:0000:00:0000:00:00
LY3OO-112026-09-01 11:54:2854.9503424.01003354°40km/h6680m3.3m/s-25.8°C82.4%0hPa0V00:00:0000:00:0000:00:00
LY3OO-112026-09-01 11:54:0854.9481424.0099238km/h6585m6.6m/s-25.1°C78.0%0hPa0V00:00:0000:00:0000:00:00
LY3OO-112026-09-01 11:53:4754.9466824.0096619°33km/h6499m5.3m/s-24.5°C74.7%0hPa0V00:00:0000:00:0000:00:00
LY3OO-112026-09-01 11:53:2754.9451824.00960338°27km/h6407m3.7m/s-23.6°C58.3%0hPa0V00:00:0000:00:0000:00:00
LY3OO-112026-09-01 11:53:0654.9436024.0096242km/h6295m6.9m/s-22.5°C59.9%0hPa0V00:00:0000:00:0000:00:00
LY3OO-112026-09-01 11:52:4654.9418524.0093412°27km/h6180m6.0m/s-21.7°C72.0%0hPa0V00:00:0000:00:0000:00:00
LY3OO-112026-09-01 11:52:2554.9402324.0088211°29km/h6064m4.8m/s-20.3°C88.2%0hPa0V00:00:0000:00:0000:00:00
LY3OO-112026-09-01 11:52:0454.9386624.0079113°42km/h5958m4.9m/s-19.5°C87.4%0hPa0V00:00:0000:00:0000:00:00
LY3OO-112026-09-01 11:51:4354.9365624.0073044km/h5856m6.2m/s-18.9°C88.8%0hPa0V00:00:0000:00:0000:00:00
LY3OO-112026-09-01 11:51:2254.9347624.0065720°37km/h5749m5.8m/s-18.2°C88.8%0hPa0V00:00:0000:00:0000:00:00
LY3OO-112026-09-01 11:51:0154.9329524.0055912°40km/h5640m5.1m/s-17.5°C86.4%0hPa0V00:00:0000:00:0000:00:00
LY3OO-112026-09-01 11:50:4054.9308224.0047840km/h5528m6.3m/s-16.8°C84.7%0hPa0V00:00:0000:00:0000:00:00
LY3OO-112026-09-01 11:50:1954.9288424.0040810°51km/h5425m3.3m/s-16.2°C85.0%0hPa0V00:00:0000:00:0000:00:00
LY3OO-112026-09-01 11:49:5854.9266824.0031618°42km/h5327m5.1m/s-15.3°C86.0%0hPa0V00:00:0000:00:0000:00:00
LY3OO-112026-09-01 11:49:3754.9251624.0021817°44km/h5232m4.8m/s-14.7°C87.1%0hPa0V00:00:0000:00:0000:00:00
LY3OO-112026-09-01 11:49:1754.9235524.0005536°27km/h5136m4.9m/s-14.0°C86.6%0hPa0V00:00:0000:00:0000:00:00
LY3OO-112026-09-01 11:48:3554.9200723.9969728°24km/h4937m5.4m/s-12.5°C85.9%0hPa0V00:00:0000:00:0000:00:00
LY3OO-112026-09-01 11:48:1454.9183023.9957232°38km/h4837m5.8m/s-12.6°C84.6%0hPa0V00:00:0000:00:0000:00:00
LY3OO-112026-09-01 11:47:5354.9162323.9946613°47km/h4755m2.9m/s-12.3°C84.3%0hPa0V00:00:0000:00:0000:00:00
LY3OO-112026-09-01 11:47:3454.9139223.9936813°53km/h4699m3.9m/s-11.7°C80.8%0hPa0V00:00:0000:00:0000:00:00
LY3OO-112026-09-01 11:47:1354.9112323.9926028°60km/h4610m2.6m/s-11.2°C76.4%0hPa0V00:00:0000:00:0000:00:00
LY3OO-112026-09-01 11:46:5354.9088523.9898638°66km/h4552m5.1m/s-10.8°C91.8%0hPa0V00:00:0000:00:0000:00:00
LY3OO-112026-09-01 11:46:3254.9069223.9868343°38km/h4452m8.4m/s-9.9°C92.3%0hPa0V00:00:0000:00:0000:00:00
LY3OO-112026-09-01 11:46:1254.9057423.9847042°35km/h4340m6.1m/s-9.2°C96.8%0hPa0V00:00:0000:00:0000:00:00
LY3OO-112026-09-01 11:45:5054.9043623.9821249°46km/h4241m4.9m/s-8.6°C96.8%0hPa0V00:00:0000:00:0000:00:00
LY3OO-112026-09-01 11:45:3054.9027623.9792241°42km/h4141m7.1m/s-7.9°C96.4%0hPa0V00:00:0000:00:0000:00:00
LY3OO-112026-09-01 11:45:0854.9014223.9763056°44km/h4022m8.0m/s-7.2°C94.3%0hPa0V00:00:0000:00:0000:00:00
LY3OO-112026-09-01 11:44:4854.8998023.9735153°42km/h3915m6.3m/s-6.6°C94.7%0hPa0V00:00:0000:00:0000:00:00
LY3OO-112026-09-01 11:44:2654.8982623.9709141°37km/h3803m4.2m/s-6.0°C92.7%0hPa0V00:00:0000:00:0000:00:00
LY3OO-112026-09-01 11:44:0654.8968123.9684758°47km/h3704m3.7m/s-5.4°C99.0%0hPa0V00:00:0000:00:0000:00:00
LY3OO-112026-09-01 11:43:4454.8949923.9657245°40km/h3608m5.9m/s-4.7°C99.4%0hPa0V00:00:0000:00:0000:00:00
LY3OO-112026-09-01 11:43:2454.8933323.9631043°47km/h3504m4.4m/s-3.9°C95.9%0hPa0V00:00:0000:00:0000:00:00
LY3OO-112026-09-01 11:43:0354.8917423.9602253°40km/h3409m4.5m/s-3.4°C95.5%0hPa0V00:00:0000:00:0000:00:00
LY3OO-112026-09-01 11:42:4554.8905523.9573160°38km/h3324m4.8m/s-3.0°C96.9%0hPa0V00:00:0000:00:0000:00:00
LY3OO-112026-09-01 11:42:2354.8892923.9542852°42km/h3227m4.6m/s-2.5°C97.3%0hPa0V00:00:0000:00:0000:00:00
LY3OO-112026-09-01 11:42:0154.8878923.9514658°35km/h3134m3.9m/s-1.9°C95.0%0hPa0V00:00:0000:00:0000:00:00
LY3OO-112026-09-01 11:41:4054.8864423.9486049°38km/h3049m4.6m/s-1.5°C96.6%0hPa0V00:00:0000:00:0000:00:00
LY3OO-112026-09-01 11:41:2054.8853223.9458954°40km/h2975m5.2m/s-1.1°C94.7%0hPa0V00:00:0000:00:0000:00:00
LY3OO-112026-09-01 11:40:5954.8840323.9429452°44km/h2898m5.6m/s-0.6°C98.6%0hPa0V00:00:0000:00:0000:00:00
LY3OO-112026-09-01 11:40:4054.8826023.9400062°44km/h2811m5.7m/s-0.0°C98.2%0hPa0V00:00:0000:00:0000:00:00
LY3OO-112026-09-01 11:40:1954.8813423.9367066°35km/h2712m5.4m/s0.1°C97.6%0hPa0V00:00:0000:00:0000:00:00
LY3OO-112026-09-01 11:39:5754.8806923.9333072°37km/h2608m5.8m/s0.9°C94.4%0hPa0V00:00:0000:00:0000:00:00
LY3OO-112026-09-01 11:39:3654.8799523.9297776°42km/h2516m4.4m/s1.1°C94.6%0hPa0V00:00:0000:00:0000:00:00
LY3OO-112026-09-01 11:39:1554.8794123.9257982°47km/h2427m4.8m/s1.9°C0%0hPa0V00:00:0000:00:0000:00:00
LY3OO-112026-09-01 11:38:5454.8790623.9215674°49km/h2329m7.1m/s2.7°C0%0hPa0V00:00:0000:00:0000:00:00
LY3OO-112026-09-01 11:38:3454.8784223.9178871°47km/h2235m6.8m/s3.3°C98.6%0hPa0V00:00:0000:00:0000:00:00
LY3OO-112026-09-01 11:38:1354.8774523.9137767°47km/h2140m6.0m/s4.0°C97.6%0hPa0V00:00:0000:00:0000:00:00
LY3OO-112026-09-01 11:37:5454.8766923.9098273°44km/h2048m3.8m/s4.8°C92.5%0hPa0V00:00:0000:00:0000:00:00
LY3OO-112026-09-01 11:37:3254.8759523.9056873°49km/h1958m5.3m/s5.7°C89.1%0hPa0V00:00:0000:00:0000:00:00
LY3OO-112026-09-01 11:37:1254.8752423.9016674°46km/h1872m4.2m/s6.5°C85.4%0hPa0V00:00:0000:00:0000:00:00
LY3OO-112026-09-01 11:36:5154.8744623.8975675°42km/h1782m2.9m/s7.0°C85.2%0hPa0V00:00:0000:00:0000:00:00
LY3OO-112026-09-01 11:36:3054.8737923.8936371°44km/h1690m4.8m/s7.7°C82.5%0hPa0V00:00:0000:00:0000:00:00
LY3OO-112026-09-01 11:36:0954.8729923.8899870°42km/h1592m4.8m/s8.5°C74.7%0hPa0V00:00:0000:00:0000:00:00
LY3OO-112026-09-01 11:35:4854.8724823.8865486°38km/h1501m3.7m/s9.0°C70.6%0hPa0V00:00:0000:00:0000:00:00
LY3OO-112026-09-01 11:35:2754.8721723.8830380°42km/h1422m5.3m/s9.2°C0%0hPa0V00:00:0000:00:0000:00:00
LY3OO-112026-09-01 11:35:0854.8718023.8793184°42km/h1335m4.8m/s9.9°C0%0hPa0V00:00:0000:00:0000:00:00
LY3OO-112026-09-01 11:34:4754.8716423.8754588°40km/h1246m4.1m/s10.3°C0%0hPa0V00:00:0000:00:0000:00:00
LY3OO-112026-09-01 11:34:2554.8718423.8719391°46km/h1153m1.7m/s10.9°C0%0hPa0V00:00:0000:00:0000:00:00
LY3OO-112026-09-01 11:33:5354.8723423.8660296°38km/h1006m5.4m/s12.1°C0%0hPa0V00:00:0000:00:0000:00:00
LY3OO-112026-09-01 11:33:2554.8729123.8609099°44km/h874m7.2m/s12.6°C0%0hPa0V00:00:0000:00:0000:00:00
LY3OO-112026-09-01 11:32:5154.8743723.85453120°44km/h734m3.9m/s0°C0%0hPa0V00:00:0000:00:0000:00:00


GPX KML Map

© wettersonde.net (DO2JMG) - 2026  -  -